TimeCDT,TemperatureF,Dew PointF,Humidity,Sea Level PressureIn,VisibilityMPH,Wind Direction,Wind SpeedMPH,Gust SpeedMPH,PrecipitationIn,Events,Conditions,WindDirDegrees,DateUTC
12:53 AM,28.0,21.9,78,30.27,10.0,ESE,4.6,-,N/A,,Overcast,120,2012-11-03 05:53:00
1:53 AM,28.9,21.9,75,30.28,10.0,SE,3.5,-,N/A,,Overcast,130,2012-11-03 06:53:00
2:53 AM,28.0,21.9,78,30.29,10.0,SSE,3.5,-,N/A,,Overcast,160,2012-11-03 07:53:00
3:53 AM,28.0,21.9,78,30.28,10.0,Variable,3.5,-,N/A,,Overcast,0,2012-11-03 08:53:00
4:53 AM,28.0,21.9,78,30.29,10.0,Calm,Calm,-,N/A,,Overcast,0,2012-11-03 09:53:00
5:53 AM,28.0,21.9,78,30.29,10.0,Variable,3.5,-,N/A,,Overcast,0,2012-11-03 10:53:00
6:53 AM,28.0,21.9,78,30.30,10.0,Calm,Calm,-,N/A,,Overcast,0,2012-11-03 11:53:00
7:53 AM,28.9,21.9,75,30.30,10.0,Variable,3.5,-,N/A,,Mostly Cloudy,0,2012-11-03 12:53:00
8:53 AM,30.0,23.0,75,30.32,10.0,Calm,Calm,-,N/A,,Overcast,0,2012-11-03 13:53:00
9:41 AM,32.0,24.8,75,30.28,10.0,SSW,3.5,-,N/A,,Scattered Clouds,210,2012-11-03 14:41:00
9:53 AM,32.0,23.0,69,30.32,10.0,Calm,Calm,-,N/A,,Clear,0,2012-11-03 14:53:00
10:22 AM,33.8,24.8,70,30.28,10.0,Variable,3.5,-,N/A,,Mostly Cloudy,0,2012-11-03 15:22:00
10:53 AM,34.0,24.1,67,30.32,10.0,South,4.6,-,N/A,,Overcast,180,2012-11-03 15:53:00
11:53 AM,36.0,25.0,64,30.31,10.0,SE,4.6,-,N/A,,Overcast,140,2012-11-03 16:53:00
12:53 PM,37.0,25.0,62,30.32,10.0,Variable,3.5,-,N/A,,Overcast,0,2012-11-03 17:53:00
1:53 PM,39.9,26.1,58,30.30,10.0,NNE,6.9,-,N/A,,Mostly Cloudy,30,2012-11-03 18:53:00
2:48 PM,39.2,26.6,61,30.25,10.0,Variable,5.8,-,N/A,,Scattered Clouds,0,2012-11-03 19:48:00
2:53 PM,39.9,26.1,58,30.29,10.0,NE,9.2,-,N/A,,Scattered Clouds,40,2012-11-03 19:53:00
3:53 PM,37.9,25.0,60,30.29,10.0,NE,6.9,-,N/A,,Partly Cloudy,50,2012-11-03 20:53:00
4:17 PM,37.4,26.6,65,30.25,10.0,ENE,9.2,-,N/A,,Mostly Cloudy,60,2012-11-03 21:17:00
4:42 PM,35.6,24.8,65,30.25,10.0,NE,8.1,-,N/A,,Partly Cloudy,50,2012-11-03 21:42:00
4:53 PM,35.1,25.0,67,30.29,10.0,ENE,8.1,-,N/A,,Partly Cloudy,60,2012-11-03 21:53:00
5:53 PM,33.1,27.0,78,30.29,10.0,ENE,8.1,-,N/A,,Clear,60,2012-11-03 22:53:00
6:53 PM,32.0,27.0,82,30.30,10.0,NE,6.9,-,N/A,,Clear,40,2012-11-03 23:53:00
7:53 PM,28.9,25.0,85,30.31,10.0,ENE,4.6,-,N/A,,Clear,60,2012-11-04 00:53:00
8:53 PM,28.0,25.0,88,30.32,10.0,Calm,Calm,-,N/A,,Partly Cloudy,0,2012-11-04 01:53:00
9:13 PM,28.4,24.8,86,30.28,10.0,NE,3.5,-,N/A,,Mostly Cloudy,40,2012-11-04 02:13:00
9:53 PM,30.9,26.1,82,30.32,10.0,ENE,3.5,-,N/A,,Overcast,60,2012-11-04 02:53:00
10:53 PM,32.0,26.1,79,30.31,10.0,East,3.5,-,N/A,,Overcast,90,2012-11-04 03:53:00
11:53 PM,30.9,27.0,85,30.31,8.0,ESE,3.5,-,0.00,Snow,Light Snow,110,2012-11-04 04:53:00